Location: Kellogg
(38.0159°N, 90.0546°W)
Time: 18:11:59
(UTC+00:00)

S-56A Canister/Altair - Pass Details

Date: 19 September 2024
Orbit: 636 x 2487 km, 38.9° (Epoch: 04 October)

Event Time Altitude Azimuth Distance (km) Brightness Sun altitude
Rises 01:40:45 0° 273° (W) 3,263 12.2 -19.8°
Reaches altitude 10° 01:42:52 10° 274° (W) 2,475 11.2 -20.2°
Maximum altitude 01:48:42 84° 2° (N) 1,098 8.2 -21.3°
Enters shadow 01:52:34 34° 89° (E) 1,963 9.1 -22.0°
Drops below altitude 10° 01:57:38 10° 92° (E) 3,686 - -23.0°
Sets 02:01:25 0° 94° (E) 4,975 - -23.7°
